This is the latest recevied weather packets stored in our database for station/object 1NW106. If no packets are shown the sender has not sent any weather packets the latest 10 day(s).
| Time | Temp. | Humidity | Pressure | Rain* | Wind** | Luminosity | Snow |
|---|---|---|---|---|---|---|---|
| 1787930970 | 27.22° C | 83% | 1009.6 hPa | 14.73 mm | - | - | - |
| 1787930371 | 27.22° C | 84% | 1009.5 hPa | 14.73 mm | - | - | - |
| 1787929771 | 27.22° C | 85% | 1009.2 hPa | 14.73 mm | - | - | - |
| 1787929170 | 26.67° C | 87% | 1008.8 hPa | 14.73 mm | - | - | - |
| 1787928570 | 26.67° C | 89% | 1008.5 hPa | 14.73 mm | - | - | - |
| 1787927970 | 26.67° C | 91% | 1008.5 hPa | 14.73 mm | - | - | - |
| 1787927370 | 26.11° C | 94% | 1008 hPa | 14.73 mm | - | - | - |
| 1787926771 | 26.67° C | 96% | 1007.5 hPa | 14.73 mm | - | - | - |
| 1787926170 | 26.67° C | 95% | 1007.4 hPa | 14.73 mm | - | - | - |
| 1787924970 | 26.67° C | 94% | 1007.1 hPa | 14.73 mm | - | - | - |
| 1787924371 | 26.67° C | 94% | 1007 hPa | 14.73 mm | - | - | - |
| 1787923770 | 26.67° C | 94% | 1006.8 hPa | 14.73 mm | - | - | - |
| 1787923170 | 26.67° C | 93% | 1006.7 hPa | 14.73 mm | - | - | - |
| 1787922570 | 26.67° C | 94% | 1006.5 hPa | 14.73 mm | - | - | - |
| 1787921970 | 26.67° C | 93% | 1006.5 hPa | 14.73 mm | - | - | - |
| 1787921370 | 26.67° C | 94% | 1006.3 hPa | 14.73 mm | - | - | - |
| 1787920770 | 26.67° C | 93% | 1006.3 hPa | 14.73 mm | - | - | - |
| 1787920171 | 26.67° C | 93% | 1006.2 hPa | 14.73 mm | - | - | - |
| 1787919570 | 26.67° C | 92% | 1006.1 hPa | 14.73 mm | - | - | - |
| 1787918970 | 27.22° C | 90% | 1006.3 hPa | 14.73 mm | - | - | - |
| 1787918370 | 27.22° C | 88% | 1006.4 hPa | 14.73 mm | - | - | - |
| 1787917770 | 27.22° C | 87% | 1006.3 hPa | 14.73 mm | - | - | - |
| 1787917170 | 27.78° C | 86% | 1006.3 hPa | 14.73 mm | - | - | - |
| 1787916570 | 27.78° C | 84% | 1006.3 hPa | 14.73 mm | - | - | - |
| 1787915970 | 27.78° C | 83% | 1006.4 hPa | 14.73 mm | - | - | - |
* Rain latest hour (hover to see other rain measurements)
** Current wind speed in m/s (hover to see current wind gust speed)